QPF
0.09 0.10 0.09 0.08 0.07 0.06 0.05 0.04 0.04 0.03 0.03 0.03 0.02 0.01 0.01 0.01 0.01 0.01 0.01 0.01 0.01 0.02 0.01 0.01 0.01 0.01 0.01 0.01 0.01 0.01 0.01 0.01 0.02 0.02 0.02 0.02 0.02 0.02 0.02 0.02 0.02 0.02 0.02
0.09 0.09 0.08 0.07 0.06 0.04 0.04 0.03 0.03 0.03 0.03 0.02 0.02 0.02 0.01 0.01 0.01 0.01 0.01 0.02 0.01 0.01 0.01 0.01 0.01 0.01 0.00 0.00 0.01 0.01 0.01 0.01 0.01 0.01 0.01 0.01 0.02 0.02 0.02 0.02 0.02 0.02 0.02
0.10 0.08 0.07 0.06 0.05 0.04 0.03 0.02 0.02 0.02 0.02 0.02 0.02 0.02 0.02 0.02 0.02 0.02 0.02 0.02 0.02 0.01 0.01 0.01 0.01 0.00 0.01 0.01 0.01 0.00 0.00 0.01 0.01 0.01 0.01 0.01 0.02 0.02 0.02 0.03 0.03 0.03 0.03
0.09 0.08 0.07 0.06 0.05 0.04 0.03 0.03 0.02 0.03 0.03 0.02 0.02 0.02 0.02 0.02 0.02 0.02 0.02 0.02 0.01 0.01 0.01 0.01 0.00 0.00 0.00 0.00 0.00 0.00 0.00 0.01 0.01 0.01 0.01 0.01 0.02 0.04 0.03 0.03 0.03 0.03 0.03
0.08 0.07 0.06 0.05 0.04 0.03 0.03 0.03 0.03 0.03 0.03 0.04 0.04 0.04 0.04 0.03 0.03 0.03 0.02 0.01 0.01 0.01 0.01 0.00 0.00 0.00 0.00 0.00 0.00 0.00 0.01 0.01 0.01 0.01 0.02 0.02 0.03 0.04 0.04 0.03 0.02 0.02 0.02
0.06 0.06 0.05 0.04 0.03 0.03 0.03 0.03 0.03 0.03 0.03 0.03 0.04 0.04 0.04 0.04 0.04 0.03 0.02 0.02 0.01 0.01 0.01 0.00 0.00 0.00 0.00 0.00 0.01 0.01 0.01 0.01 0.01 0.01 0.02 0.02 0.03 0.03 0.03 0.02 0.02 0.02 0.02
0.06 0.04 0.03 0.03 0.02 0.02 0.02 0.02 0.03 0.02 0.02 0.03 0.03 0.03 0.03 0.03 0.03 0.02 0.02 0.01 0.01 0.01 0.01 0.01 0.01 0.01 0.01 0.01 0.02 0.02 0.01 0.01 0.01 0.01 0.02 0.02 0.03 0.04 0.03 0.03 0.02 0.02 0.01
0.06 0.06 0.04 0.03 0.02 0.02 0.02 0.02 0.02 0.01 0.01 0.01 0.01 0.01 0.02 0.02 0.03 0.02 0.02 0.02 0.02 0.02 0.02 0.02 0.02 0.02 0.02 0.03 0.02 0.01 0.01 0.02 0.02 0.02 0.03 0.03 0.04 0.04 0.04 0.04 0.02 0.02 0.01
0.04 0.04 0.04 0.03 0.02 0.02 0.01 0.01 0.01 0.01 0.01 0.01 0.01 0.01 0.01 0.02 0.02 0.02 0.02 0.02 0.02 0.02 0.02 0.03 0.02 0.02 0.03 0.03 0.02 0.01 0.01 0.02 0.02 0.03 0.03 0.04 0.04 0.04 0.04 0.03 0.02 0.01 0.01
0.02 0.03 0.03 0.03 0.02 0.01 0.01 0.01 0.00 0.01 0.01 0.01 0.01 0.01 0.01 0.01 0.02 0.02 0.02 0.02 0.02 0.02 0.03 0.03 0.03 0.03 0.04 0.04 0.02 0.01 0.01 0.02 0.02 0.02 0.03 0.02 0.02 0.02 0.02 0.01 0.01 0.01 0.01
0.02 0.02 0.02 0.02 0.01 0.01 0.01 0.01 0.01 0.01 0.01 0.01 0.01 0.01 0.00 0.01 0.01 0.02 0.02 0.02 0.02 0.02 0.02 0.03 0.04 0.04 0.04 0.03 0.02 0.01 0.02 0.02 0.02 0.02 0.02 0.01 0.01 0.01 0.00 0.00 0.01 0.01 0.01
0.02 0.02 0.02 0.01 0.01 0.01 0.01 0.01 0.01 0.01 0.01 0.01 0.00 0.00 0.00 0.00 0.00 0.00 0.00 0.01 0.01 0.01 0.02 0.02 0.02 0.02 0.02 0.02 0.02 0.01 0.01 0.01 0.01 0.01 0.01 0.00 0.00 0.00 0.00 0.00 0.00 0.00 0.01
0.02 0.02 0.01 0.01 0.01 0.01 0.01 0.01 0.01 0.01 0.00 0.00 0.00 0.00 0.00 0.00 0.00 0.00 0.00 0.01 0.01 0.01 0.01 0.00 0.01 0.01 0.01 0.01 0.01 0.01 0.01 0.01 0.00 0.00 0.00 0.00 0.00 0.00 0.00 0.00 0.00 0.00 0.00
0.01 0.01 0.01 0.01 0.01 0.01 0.01 0.01 0.01 0.00 0.00 0.00 0.00 0.00 0.00 0.00 0.00 0.00 0.00 0.01 0.01 0.01 0.01 0.01 0.01 0.01 0.01 0.01 0.00 0.01 0.01 0.00 0.00 0.00 0.00 0.00 0.00 0.00 0.00 0.00 0.00 0.00 0.00
0.00 0.00 0.01 0.01 0.01 0.01 0.01 0.00 0.00 0.00 0.00 0.01 0.01 0.01 0.01 0.01 0.00 0.01 0.01 0.01 0.01 0.01 0.01 0.02 0.01 0.01 0.01 0.01 0.00 0.00 0.01 0.01 0.00 0.00 0.00 0.00 0.00 0.00 0.00 0.00 0.00 0.00 0.00
0.00 0.00 0.00 0.00 0.00 0.00 0.00 0.00 0.00 0.00 0.00 0.00 0.01 0.01 0.01 0.01 0.01 0.01 0.01 0.01 0.01 0.01 0.01 0.01 0.01 0.01 0.00 0.01 0.01 0.01 0.01 0.01 0.00 0.00 0.00 0.00 0.00 0.00 0.00 0.00 0.00 0.00 0.00
0.00 0.00 0.00 0.00 0.00 0.00 0.00 0.00 0.00 0.00 0.00 0.00 0.01 0.01 0.01 0.01 0.01 0.01 0.01 0.01 0.01 0.01 0.01 0.01 0.01 0.01 0.01 0.01 0.01 0.01 0.01 0.01 0.01 0.00 0.00 0.00 0.00 0.00 0.00 0.00 0.00 0.00 0.00
0.00 0.00 0.00 0.00 0.00 0.00 0.00 0.00 0.00 0.00 0.00 0.00 0.00 0.00 0.01 0.01 0.01 0.01 0.01 0.02 0.02 0.02 0.01 0.01 0.01 0.01 0.01 0.01 0.01 0.01 0.01 0.01 0.01 0.01 0.00 0.00 0.01 0.01 0.00 0.00 0.00 0.00 0.00
0.00 0.00 0.00 0.00 0.00 0.00 0.00 0.00 0.00 0.00 0.00 0.00 0.00 0.00 0.01 0.01 0.01 0.01 0.01 0.02 0.01 0.01 0.01 0.01 0.01 0.01 0.01 0.01 0.01 0.01 0.01 0.01 0.01 0.01 0.01 0.01 0.01 0.01 0.01 0.00 0.00 0.00 0.00
0.00 0.00 0.00 0.00 0.00 0.00 0.00 0.00 0.00 0.00 0.00 0.00 0.00 0.00 0.00 0.01 0.01 0.01 0.01 0.01 0.01 0.01 0.01 0.01 0.01 0.01 0.01 0.01 0.01 0.01 0.01 0.01 0.01 0.01 0.01 0.01 0.01 0.01 0.01 0.01 0.01 0.01 0.01
0.00 0.00 0.00 0.00 0.00 0.00 0.00 0.00 0.00 0.00 0.00 0.00 0.00 0.00 0.01 0.01 0.01 0.00 0.01 0.01 0.01 0.02 0.02 0.01 0.01 0.01 0.01 0.01 0.01 0.01 0.01 0.01 0.01 0.01 0.01 0.01 0.01 0.01 0.01 0.01 0.01 0.01 0.01
0.00 0.00 0.00 0.00 0.00 0.00 0.00 0.00 0.00 0.00 0.00 0.00 0.00 0.00 0.01 0.01 0.01 0.01 0.01 0.01 0.01 0.01 0.02 0.02 0.02 0.02 0.01 0.01 0.01 0.01 0.01 0.01 0.01 0.01 0.01 0.01 0.01 0.01 0.01 0.01 0.01 0.01 0.01
0.00 0.00 0.00 0.00 0.00 0.00 0.00 0.00 0.01 0.01 0.01 0.01 0.01 0.00 0.00 0.01 0.01 0.01 0.01 0.01 0.01 0.01 0.01 0.02 0.02 0.02 0.02 0.02 0.02 0.02 0.02 0.01 0.02 0.02 0.02 0.02 0.02 0.01 0.01 0.01 0.01 0.01 0.01
0.01 0.01 0.01 0.01 0.01 0.01 0.01 0.01 0.01 0.01 0.01 0.01 0.01 0.00 0.00 0.00 0.01 0.01 0.01 0.01 0.01 0.01 0.01 0.01 0.02 0.02 0.02 0.02 0.02 0.02 0.02 0.02 0.03 0.03 0.02 0.02 0.02 0.02 0.01 0.01 0.01 0.01 0.01
0.01 0.01 0.01 0.01 0.01 0.01 0.01 0.01 0.01 0.01 0.01 0.01 0.01 0.00 0.00 0.00 0.01 0.01 0.01 0.01 0.01 0.01 0.01 0.01 0.01 0.01 0.01 0.02 0.02 0.02 0.02 0.02 0.03 0.03 0.03 0.02 0.02 0.02 0.02 0.01 0.01 0.02 0.01
0.00 0.00 0.01 0.01 0.01 0.01 0.01 0.01 0.01 0.01 0.01 0.01 0.01 0.01 0.00 0.00 0.00 0.00 0.00 0.00 0.01 0.01 0.01 0.01 0.01 0.01 0.02 0.02 0.02 0.02 0.02 0.03 0.03 0.03 0.03 0.03 0.02 0.02 0.02 0.02 0.02 0.02 0.02
MSLP
1022.26 1021.83 1021.52 1021.32 1021.22 1021.21 1021.25 1021.35 1021.47 1021.61 1021.74 1021.86 1021.96 1022.04 1022.10 1022.14 1022.19 1022.25 1022.35 1022.50 1022.72 1022.98 1023.27 1023.55 1023.79 1023.93 1023.93 1023.75 1023.37 1022.80 1022.06 1021.18 1020.22 1019.22 1018.24 1017.31 1016.44 1015.62 1014.85 1014.08 1013.29 1012.45 1011.54
1023.66 1023.28 1023.00 1022.81 1022.71 1022.67 1022.69 1022.74 1022.79 1022.85 1022.89 1022.90 1022.89 1022.85 1022.78 1022.72 1022.67 1022.66 1022.71 1022.83 1023.03 1023.29 1023.60 1023.91 1024.18 1024.34 1024.36 1024.19 1023.80 1023.20 1022.42 1021.48 1020.44 1019.35 1018.27 1017.22 1016.23 1015.29 1014.41 1013.54 1012.66 1011.74 1010.77
1024.76 1024.43 1024.19 1024.03 1023.94 1023.91 1023.92 1023.95 1023.97 1023.97 1023.95 1023.88 1023.78 1023.65 1023.50 1023.35 1023.23 1023.17 1023.17 1023.27 1023.45 1023.71 1024.01 1024.32 1024.58 1024.74 1024.75 1024.55 1024.15 1023.52 1022.71 1021.73 1020.64 1019.49 1018.34 1017.21 1016.14 1015.12 1014.15 1013.19 1012.23 1011.24 1010.20
1025.53 1025.25 1025.06 1024.94 1024.89 1024.89 1024.92 1024.95 1024.97 1024.96 1024.90 1024.79 1024.64 1024.46 1024.26 1024.08 1023.92 1023.82 1023.80 1023.88 1024.04 1024.27 1024.54 1024.81 1025.03 1025.15 1025.11 1024.88 1024.44 1023.79 1022.95 1021.95 1020.85 1019.68 1018.51 1017.35 1016.24 1015.18 1014.15 1013.13 1012.10 1011.04 1009.92
1025.97 1025.76 1025.62 1025.56 1025.56 1025.61 1025.67 1025.74 1025.78 1025.78 1025.73 1025.63 1025.48 1025.29 1025.10 1024.91 1024.75 1024.65 1024.62 1024.67 1024.80 1024.99 1025.20 1025.40 1025.54 1025.58 1025.47 1025.17 1024.69 1024.01 1023.17 1022.18 1021.10 1019.96 1018.81 1017.67 1016.57 1015.49 1014.44 1013.39 1012.31 1011.18 1009.99
1026.17 1026.03 1025.96 1025.96 1026.01 1026.11 1026.23 1026.34 1026.42 1026.46 1026.45 1026.38 1026.28 1026.13 1025.98 1025.83 1025.70 1025.62 1025.59 1025.62 1025.71 1025.83 1025.95 1026.05 1026.08 1026.01 1025.80 1025.43 1024.90 1024.20 1023.36 1022.41 1021.37 1020.30 1019.21 1018.13 1017.07 1016.02 1014.97 1013.90 1012.78 1011.60 1010.34
1026.24 1026.17 1026.17 1026.23 1026.34 1026.48 1026.65 1026.80 1026.93 1027.02 1027.07 1027.07 1027.03 1026.96 1026.87 1026.78 1026.71 1026.66 1026.65 1026.66 1026.69 1026.73 1026.75 1026.72 1026.62 1026.42 1026.10 1025.65 1025.06 1024.34 1023.52 1022.61 1021.65 1020.66 1019.65 1018.65 1017.65 1016.64 1015.62 1014.55 1013.41 1012.19 1010.87
1026.30 1026.31 1026.37 1026.49 1026.64 1026.83 1027.02 1027.21 1027.38 1027.52 1027.63 1027.69 1027.73 1027.74 1027.73 1027.72 1027.71 1027.70 1027.70 1027.69 1027.67 1027.61 1027.52 1027.35 1027.12 1026.78 1026.35 1025.81 1025.17 1024.44 1023.63 1022.78 1021.88 1020.97 1020.05 1019.12 1018.18 1017.22 1016.22 1015.16 1014.01 1012.77 1011.41
1026.44 1026.53 1026.66 1026.83 1027.02 1027.22 1027.44 1027.65 1027.84 1028.01 1028.15 1028.28 1028.38 1028.46 1028.53 1028.59 1028.64 1028.66 1028.66 1028.63 1028.55 1028.41 1028.20 1027.92 1027.55 1027.09 1026.55 1025.94 1025.25 1024.50 1023.71 1022.89 1022.05 1021.19 1020.33 1019.45 1018.55 1017.62 1016.63 1015.57 1014.42 1013.17 1011.80
1026.71 1026.89 1027.08 1027.29 1027.50 1027.72 1027.94 1028.14 1028.34 1028.52 1028.69 1028.85 1029.00 1029.13 1029.26 1029.37 1029.45 1029.50 1029.50 1029.44 1029.30 1029.09 1028.79 1028.40 1027.93 1027.37 1026.75 1026.07 1025.34 1024.57 1023.78 1022.97 1022.15 1021.31 1020.46 1019.59 1018.70 1017.75 1016.76 1015.69 1014.54 1013.29 1011.93
1027.10 1027.37 1027.62 1027.87 1028.10 1028.32 1028.53 1028.72 1028.90 1029.08 1029.25 1029.43 1029.60 1029.76 1029.92 1030.05 1030.15 1030.20 1030.19 1030.11 1029.93 1029.66 1029.29 1028.83 1028.28 1027.67 1026.99 1026.26 1025.50 1024.71 1023.90 1023.07 1022.23 1021.36 1020.48 1019.57 1018.62 1017.63 1016.60 1015.51 1014.35 1013.11 1011.77
1027.55 1027.89 1028.21 1028.49 1028.74 1028.97 1029.17 1029.36 1029.53 1029.69 1029.86 1030.03 1030.20 1030.36 1030.52 1030.66 1030.75 1030.80 1030.77 1030.66 1030.45 1030.14 1029.74 1029.25 1028.67 1028.03 1027.33 1026.57 1025.79 1024.97 1024.12 1023.25 1022.34 1021.40 1020.43 1019.43 1018.40 1017.33 1016.22 1015.08 1013.90 1012.66 1011.36
1027.97 1028.38 1028.75 1029.08 1029.36 1029.60 1029.82 1030.00 1030.18 1030.34 1030.50 1030.65 1030.81 1030.97 1031.11 1031.22 1031.30 1031.32 1031.27 1031.14 1030.92 1030.61 1030.20 1029.71 1029.14 1028.50 1027.80 1027.05 1026.24 1025.39 1024.49 1023.55 1022.55 1021.51 1020.42 1019.29 1018.13 1016.95 1015.75 1014.54 1013.32 1012.08 1010.81
1028.28 1028.74 1029.16 1029.54 1029.86 1030.15 1030.40 1030.61 1030.80 1030.98 1031.14 1031.30 1031.44 1031.58 1031.69 1031.78 1031.83 1031.82 1031.76 1031.62 1031.40 1031.10 1030.72 1030.25 1029.72 1029.11 1028.43 1027.69 1026.87 1025.99 1025.03 1024.00 1022.90 1021.73 1020.50 1019.23 1017.93 1016.62 1015.33 1014.04 1012.78 1011.52 1010.26
1028.41 1028.92 1029.39 1029.82 1030.21 1030.55 1030.86 1031.14 1031.38 1031.59 1031.78 1031.94 1032.08 1032.20 1032.29 1032.35 1032.37 1032.35 1032.26 1032.13 1031.92 1031.65 1031.30 1030.89 1030.40 1029.83 1029.19 1028.46 1027.64 1026.73 1025.71 1024.60 1023.39 1022.09 1020.73 1019.32 1017.89 1016.47 1015.07 1013.71 1012.40 1011.11 1009.85
1028.37 1028.90 1029.42 1029.91 1030.37 1030.80 1031.20 1031.55 1031.86 1032.14 1032.37 1032.57 1032.72 1032.83 1032.91 1032.95 1032.95 1032.90 1032.82 1032.68 1032.50 1032.26 1031.95 1031.59 1031.15 1030.63 1030.01 1029.30 1028.47 1027.53 1026.46 1025.28 1023.98 1022.58 1021.11 1019.59 1018.06 1016.54 1015.06 1013.64 1012.27 1010.96 1009.67
1028.19 1028.75 1029.30 1029.86 1030.40 1030.93 1031.42 1031.86 1032.26 1032.61 1032.90 1033.14 1033.32 1033.44 1033.52 1033.55 1033.54 1033.50 1033.41 1033.29 1033.12 1032.91 1032.65 1032.32 1031.91 1031.42 1030.83 1030.11 1029.28 1028.30 1027.19 1025.95 1024.59 1023.13 1021.59 1020.00 1018.40 1016.83 1015.30 1013.83 1012.43 1011.07 1009.75
1027.96 1028.53 1029.13 1029.74 1030.37 1030.98 1031.56 1032.10 1032.59 1033.01 1033.36 1033.65 1033.86 1034.01 1034.10 1034.14 1034.14 1034.10 1034.03 1033.92 1033.77 1033.58 1033.34 1033.03 1032.63 1032.15 1031.55 1030.83 1029.97 1028.97 1027.83 1026.55 1025.16 1023.67 1022.10 1020.49 1018.88 1017.29 1015.74 1014.25 1012.82 1011.43 1010.07
1027.74 1028.33 1028.97 1029.64 1030.33 1031.02 1031.68 1032.30 1032.85 1033.34 1033.74 1034.07 1034.32 1034.50 1034.62 1034.68 1034.70 1034.69 1034.63 1034.54 1034.41 1034.23 1033.98 1033.67 1033.26 1032.75 1032.13 1031.38 1030.49 1029.46 1028.30 1027.02 1025.62 1024.14 1022.59 1021.01 1019.42 1017.85 1016.31 1014.82 1013.38 1011.96 1010.55
1027.60 1028.22 1028.90 1029.62 1030.36 1031.10 1031.81 1032.47 1033.07 1033.60 1034.04 1034.40 1034.69 1034.90 1035.06 1035.16 1035.21 1035.23 1035.20 1035.13 1035.00 1034.82 1034.56 1034.21 1033.77 1033.21 1032.54 1031.74 1030.82 1029.77 1028.60 1027.32 1025.95 1024.51 1023.02 1021.50 1019.97 1018.45 1016.95 1015.47 1014.02 1012.58 1011.14
1027.57 1028.22 1028.94 1029.70 1030.47 1031.23 1031.96 1032.64 1033.25 1033.79 1034.25 1034.64 1034.95 1035.20 1035.40 1035.55 1035.65 1035.71 1035.71 1035.66 1035.53 1035.33 1035.03 1034.64 1034.13 1033.51 1032.78 1031.93 1030.96 1029.89 1028.73 1027.48 1026.16 1024.79 1023.38 1021.94 1020.49 1019.04 1017.59 1016.14 1014.70 1013.24 1011.77
1027.63 1028.33 1029.08 1029.86 1030.64 1031.40 1032.12 1032.79 1033.39 1033.91 1034.38 1034.78 1035.12 1035.41 1035.65 1035.85 1036.00 1036.11 1036.14 1036.10 1035.97 1035.74 1035.40 1034.94 1034.37 1033.67 1032.87 1031.96 1030.96 1029.88 1028.73 1027.53 1026.28 1024.99 1023.68 1022.34 1020.98 1019.61 1018.22 1016.81 1015.38 1013.91 1012.42
1027.74 1028.48 1029.25 1030.04 1030.81 1031.55 1032.25 1032.88 1033.45 1033.96 1034.41 1034.82 1035.19 1035.52 1035.81 1036.07 1036.28 1036.42 1036.49 1036.46 1036.32 1036.05 1035.66 1035.13 1034.48 1033.71 1032.84 1031.88 1030.85 1029.78 1028.66 1027.52 1026.35 1025.17 1023.96 1022.73 1021.47 1020.18 1018.85 1017.48 1016.06 1014.61 1013.10
1027.82 1028.59 1029.38 1030.16 1030.92 1031.63 1032.29 1032.89 1033.43 1033.92 1034.37 1034.79 1035.18 1035.56 1035.91 1036.22 1036.48 1036.66 1036.75 1036.72 1036.56 1036.25 1035.80 1035.20 1034.48 1033.64 1032.71 1031.72 1030.69 1029.63 1028.57 1027.50 1026.43 1025.36 1024.26 1023.15 1021.99 1020.78 1019.51 1018.18 1016.79 1015.35 1013.86
1027.80 1028.59 1029.39 1030.16 1030.90 1031.58 1032.21 1032.78 1033.30 1033.79 1034.25 1034.69 1035.12 1035.55 1035.95 1036.31 1036.61 1036.83 1036.93 1036.90 1036.70 1036.35 1035.84 1035.18 1034.39 1033.50 1032.53 1031.53 1030.51 1029.49 1028.49 1027.51 1026.55 1025.59 1024.61 1023.61 1022.55 1021.42 1020.23 1018.95 1017.60 1016.19 1014.74
1027.66 1028.45 1029.24 1030.00 1030.72 1031.39 1032.00 1032.56 1033.08 1033.57 1034.06 1034.54 1035.02 1035.50 1035.95 1036.36 1036.70 1036.93 1037.03 1036.98 1036.76 1036.36 1035.79 1035.07 1034.23 1033.30 1032.32 1031.32 1030.33 1029.37 1028.45 1027.57 1026.72 1025.88 1025.02 1024.12 1023.17 1022.13 1021.01 1019.80 1018.51 1017.16 1015.77
Thickness
5491 5488 5484 5481 5477 5473 5469 5466 5461 5457 5452 5448 5445 5441 5437 5433 5429 5425 5422 5418 5414 5410 5406 5403 5399 5395 5391 5387 5383 5379 5376 5373 5373 5372 5367 5362 5357 5354 5352 5349 5346 5344 5342
5486 5483 5479 5476 5471 5467 5463 5460 5455 5451 5447 5443 5439 5435 5431 5427 5422 5419 5415 5411 5407 5403 5399 5394 5390 5386 5382 5377 5373 5369 5365 5362 5360 5360 5357 5352 5348 5344 5341 5339 5336 5333 5331
5482 5479 5475 5471 5467 5462 5458 5454 5450 5445 5441 5437 5433 5428 5424 5420 5416 5412 5407 5403 5399 5395 5391 5387 5383 5378 5374 5369 5364 5360 5356 5352 5349 5348 5346 5341 5338 5335 5332 5330 5327 5324 5322
5478 5474 5471 5467 5463 5458 5454 5449 5445 5440 5436 5431 5426 5422 5418 5413 5409 5405 5400 5396 5392 5388 5383 5379 5374 5370 5365 5361 5356 5352 5348 5344 5341 5338 5335 5333 5329 5325 5321 5320 5319 5316 5313
5473 5470 5467 5462 5458 5453 5449 5445 5439 5434 5430 5425 5421 5416 5412 5408 5404 5399 5394 5390 5386 5382 5376 5371 5367 5362 5357 5352 5348 5344 5340 5337 5334 5330 5327 5324 5321 5316 5312 5309 5307 5306 5304
5469 5466 5462 5457 5453 5448 5444 5439 5434 5429 5424 5420 5415 5411 5407 5402 5398 5393 5388 5384 5380 5376 5371 5366 5361 5356 5350 5345 5341 5337 5332 5329 5326 5322 5319 5315 5311 5306 5302 5297 5294 5294 5295
5464 5460 5456 5452 5448 5443 5438 5434 5429 5424 5420 5415 5411 5406 5401 5397 5392 5387 5382 5378 5374 5370 5366 5361 5356 5351 5345 5341 5336 5331 5326 5320 5316 5313 5311 5307 5302 5298 5293 5289 5284 5280 5278
5459 5455 5451 5447 5443 5438 5433 5429 5424 5420 5415 5411 5407 5402 5396 5392 5386 5382 5377 5372 5368 5364 5360 5355 5350 5346 5341 5336 5331 5327 5322 5317 5311 5306 5303 5299 5293 5288 5283 5278 5274 5271 5269
5455 5451 5447 5442 5438 5433 5428 5424 5420 5415 5410 5406 5401 5396 5391 5387 5382 5377 5372 5368 5363 5359 5354 5349 5345 5340 5336 5330 5326 5322 5317 5313 5306 5301 5296 5290 5285 5279 5274 5269 5265 5262 5263
5452 5447 5442 5438 5434 5429 5425 5419 5414 5409 5405 5400 5394 5390 5386 5382 5377 5371 5366 5363 5359 5354 5349 5344 5339 5334 5330 5325 5320 5316 5312 5308 5301 5295 5290 5284 5278 5272 5266 5260 5255 5251 5249
5446 5441 5436 5432 5428 5424 5419 5413 5408 5403 5398 5393 5389 5385 5380 5376 5372 5367 5362 5357 5353 5349 5344 5340 5334 5329 5324 5319 5314 5309 5305 5299 5293 5287 5282 5278 5272 5266 5260 5253 5247 5241 5238
5439 5434 5429 5425 5421 5417 5412 5406 5401 5396 5391 5386 5382 5379 5375 5370 5366 5362 5357 5352 5347 5342 5339 5334 5328 5323 5318 5313 5307 5302 5296 5290 5284 5279 5275 5271 5266 5260 5254 5247 5241 5235 5230
5431 5426 5422 5418 5414 5410 5405 5400 5395 5390 5386 5381 5377 5374 5371 5366 5361 5356 5351 5346 5341 5336 5332 5327 5322 5316 5311 5306 5300 5294 5288 5282 5277 5272 5268 5264 5258 5252 5246 5240 5235 5230 5225
5423 5419 5414 5410 5406 5402 5398 5394 5389 5385 5381 5377 5373 5369 5365 5360 5356 5351 5345 5340 5335 5331 5325 5320 5315 5309 5304 5298 5293 5287 5281 5275 5270 5265 5261 5255 5249 5244 5238 5233 5229 5224 5220
5416 5412 5407 5403 5400 5395 5391 5387 5383 5380 5377 5372 5368 5364 5359 5356 5352 5346 5341 5336 5330 5325 5318 5312 5307 5302 5297 5292 5286 5280 5274 5268 5262 5257 5252 5247 5242 5236 5231 5225 5220 5215 5211
5408 5404 5400 5397 5392 5388 5384 5379 5375 5372 5368 5364 5360 5356 5352 5349 5345 5340 5335 5329 5323 5317 5311 5306 5301 5295 5290 5285 5279 5274 5267 5261 5256 5249 5244 5239 5234 5229 5224 5218 5212 5207 5204
5402 5397 5393 5389 5385 5381 5376 5373 5369 5364 5359 5355 5352 5348 5344 5341 5337 5332 5327 5322 5316 5309 5303 5299 5294 5289 5283 5277 5271 5266 5261 5254 5247 5241 5236 5231 5226 5221 5216 5211 5205 5200 5196
5392 5389 5385 5381 5377 5373 5369 5365 5361 5357 5354 5350 5345 5341 5337 5333 5328 5323 5318 5313 5308 5302 5297 5292 5287 5281 5275 5270 5264 5258 5253 5246 5240 5234 5229 5223 5218 5213 5209 5204 5198 5192 5188
5383 5380 5376 5372 5368 5364 5360 5355 5351 5347 5345 5342 5338 5333 5328 5323 5319 5314 5309 5304 5301 5296 5291 5285 5279 5274 5268 5262 5256 5250 5244 5239 5234 5228 5223 5217 5211 5206 5201 5196 5191 5186 5180
5373 5369 5365 5361 5357 5353 5349 5346 5342 5339 5336 5333 5329 5325 5319 5313 5309 5306 5300 5296 5292 5288 5283 5278 5272 5266 5260 5254 5248 5242 5237 5232 5227 5221 5217 5211 5205 5200 5195 5190 5185 5180 5175
5363 5359 5354 5350 5347 5343 5339 5336 5332 5329 5326 5323 5320 5316 5310 5306 5303 5298 5293 5289 5284 5280 5275 5269 5264 5258 5252 5246 5241 5235 5230 5226 5220 5215 5210 5205 5199 5194 5189 5184 5179 5173 5169
5352 5349 5344 5340 5336 5333 5329 5325 5322 5318 5315 5312 5309 5304 5300 5296 5293 5290 5286 5282 5276 5271 5266 5261 5256 5251 5245 5239 5234 5229 5224 5219 5214 5209 5204 5198 5193 5188 5183 5178 5173 5168 5163
5340 5336 5333 5329 5325 5321 5317 5314 5311 5308 5305 5301 5297 5294 5289 5286 5282 5279 5275 5271 5266 5262 5257 5252 5247 5242 5237 5231 5226 5222 5217 5213 5208 5202 5197 5192 5187 5182 5177 5173 5168 5163 5159
5328 5325 5321 5318 5315 5312 5308 5305 5301 5298 5294 5291 5287 5283 5280 5276 5272 5269 5264 5260 5255 5251 5246 5242 5238 5234 5228 5223 5218 5215 5211 5206 5201 5195 5190 5185 5181 5176 5171 5167 5163 5158 5153
5315 5313 5310 5307 5304 5301 5298 5295 5291 5288 5284 5280 5277 5273 5269 5265 5261 5257 5253 5249 5245 5241 5236 5232 5228 5224 5220 5215 5210 5206 5202 5198 5194 5189 5184 5179 5175 5171 5166 5162 5158 5153 5148
5302 5300 5297 5294 5292 5289 5286 5284 5281 5277 5273 5270 5266 5262 5258 5254 5250 5246 5242 5237 5234 5230 5226 5222 5218 5214 5210 5206 5202 5198 5194 5191 5187 5182 5177 5173 5169 5165 5161 5157 5153 5148 5144